Time,TemperatureF,DewpointF,PressureIn,WindDirection,WindDirectionDegrees,WindSpeedMPH,WindSpeedGustMPH,Humidity,HourlyPrecipIn,Conditions,Clouds,dailyrainin,SoftwareType,DateUTC
2013-07-03 00:03:00,60.3,56.4,29.90,SW,214,1.9,1.9,87,0.00,,,0.00,VWS V14.01,2013-07-03 07:03:00,
2013-07-03 00:08:00,60.1,56.6,29.90,WSW,249,0.0,1.9,88,0.00,,,0.00,VWS V14.01,2013-07-03 07:08:00,
2013-07-03 00:14:00,60.1,56.6,29.90,WSW,255,0.0,1.9,88,0.00,,,0.00,VWS V14.01,2013-07-03 07:14:00,
2013-07-03 00:19:00,60.1,56.6,29.91,WSW,257,0.0,1.9,88,0.00,,,0.00,VWS V14.01,2013-07-03 07:19:00,
2013-07-03 00:23:00,60.1,56.6,29.90,WSW,257,0.0,1.9,88,0.00,,,0.00,VWS V14.01,2013-07-03 07:23:00,
2013-07-03 00:28:00,60.0,56.5,29.90,West,262,0.0,1.9,88,0.00,,,0.00,VWS V14.01,2013-07-03 07:28:00,
2013-07-03 00:35:00,60.0,56.8,29.90,West,262,0.0,1.9,89,0.00,,,0.00,VWS V14.01,2013-07-03 07:35:00,
2013-07-03 00:40:00,60.0,56.4,29.90,West,262,0.0,1.9,88,0.00,,,0.00,VWS V14.01,2013-07-03 07:40:00,
2013-07-03 00:45:00,60.0,56.7,29.90,West,262,0.0,0.0,89,0.00,,,0.00,VWS V14.01,2013-07-03 07:45:00,
2013-07-03 00:50:00,60.0,56.7,29.90,West,262,0.0,0.0,89,0.00,,,0.00,VWS V14.01,2013-07-03 07:50:00,
2013-07-03 00:54:00,60.0,56.7,29.90,West,261,0.0,1.9,89,0.00,,,0.00,VWS V14.01,2013-07-03 07:54:00,
2013-07-03 00:59:00,60.0,56.7,29.90,West,261,0.0,1.9,89,0.00,,,0.00,VWS V14.01,2013-07-03 07:59:00,
2013-07-03 01:04:00,60.0,56.7,29.90,West,279,0.0,3.8,89,0.00,,,0.00,VWS V14.01,2013-07-03 08:04:00,
2013-07-03 01:05:00,59.9,56.6,29.90,West,280,0.0,3.8,89,0.00,,,0.00,VWS V14.01,2013-07-03 08:05:00,
2013-07-03 01:07:00,59.9,56.6,29.90,West,279,0.0,3.8,89,0.00,,,0.00,VWS V14.01,2013-07-03 08:07:00,
2013-07-03 01:14:00,59.9,56.6,29.90,West,279,0.0,3.8,89,0.00,,,0.00,VWS V14.01,2013-07-03 08:14:00,
2013-07-03 01:19:00,59.9,56.6,29.90,West,276,1.9,1.9,89,0.00,,,0.00,VWS V14.01,2013-07-03 08:19:00,
2013-07-03 01:24:00,59.8,56.5,29.89,West,276,0.0,1.9,89,0.00,,,0.00,VWS V14.01,2013-07-03 08:24:00,
2013-07-03 01:31:00,59.8,56.5,29.89,West,276,0.0,1.9,89,0.00,,,0.00,VWS V14.01,2013-07-03 08:31:00,
2013-07-03 01:37:00,59.7,56.5,29.89,West,276,0.0,1.9,89,0.00,,,0.00,VWS V14.01,2013-07-03 08:37:00,
2013-07-03 01:41:00,59.6,56.7,29.89,West,276,0.0,1.9,90,0.00,,,0.00,VWS V14.01,2013-07-03 08:41:00,
2013-07-03 01:45:00,59.6,56.7,29.89,West,275,0.0,0.0,90,0.00,,,0.00,VWS V14.01,2013-07-03 08:45:00,
2013-07-03 01:50:00,59.5,56.6,29.89,West,276,0.0,0.0,90,0.00,,,0.00,VWS V14.01,2013-07-03 08:50:00,
2013-07-03 01:55:00,59.4,56.5,29.89,West,276,0.0,0.0,90,0.00,,,0.00,VWS V14.01,2013-07-03 08:55:00,
2013-07-03 01:56:00,59.4,56.5,29.89,West,276,0.0,0.0,90,0.00,,,0.00,VWS V14.01,2013-07-03 08:56:00,
2013-07-03 02:01:00,59.4,56.5,29.89,West,275,0.0,0.0,90,0.00,,,0.00,VWS V14.01,2013-07-03 09:01:00,
2013-07-03 02:06:00,59.4,56.5,29.89,West,276,0.0,0.0,90,0.00,,,0.00,VWS V14.01,2013-07-03 09:06:00,
2013-07-03 02:11:00,59.4,56.5,29.89,NW,305,1.9,1.9,90,0.00,,,0.00,VWS V14.01,2013-07-03 09:11:00,
2013-07-03 02:16:00,59.4,56.5,29.89,NW,305,0.0,0.0,90,0.00,,,0.00,VWS V14.01,2013-07-03 09:16:00,
2013-07-03 02:27:00,59.4,56.5,29.88,NW,304,0.0,0.0,90,0.00,,,0.00,VWS V14.01,2013-07-03 09:27:00,
2013-07-03 02:32:00,59.4,56.5,29.88,NW,304,0.0,0.0,90,0.00,,,0.00,VWS V14.01,2013-07-03 09:32:00,
2013-07-03 02:37:00,59.4,56.5,29.88,NW,304,0.0,0.0,90,0.00,,,0.00,VWS V14.01,2013-07-03 09:37:00,
2013-07-03 02:44:00,59.4,56.5,29.88,NW,304,0.0,0.0,90,0.00,,,0.00,VWS V14.01,2013-07-03 09:44:00,
2013-07-03 02:49:00,59.4,56.5,29.88,NW,304,0.0,0.0,90,0.00,,,0.00,VWS V14.01,2013-07-03 09:49:00,
2013-07-03 02:51:00,59.4,56.5,29.88,NW,304,0.0,0.0,90,0.00,,,0.00,VWS V14.01,2013-07-03 09:51:00,
2013-07-03 02:52:00,59.4,56.5,29.88,NW,304,0.0,0.0,90,0.00,,,0.00,VWS V14.01,2013-07-03 09:52:00,
2013-07-03 02:57:00,59.2,56.3,29.88,NW,304,0.0,0.0,90,0.00,,,0.00,VWS V14.01,2013-07-03 09:57:00,
2013-07-03 03:03:00,59.4,56.8,29.88,NW,304,0.0,0.0,91,0.00,,,0.00,VWS V14.01,2013-07-03 10:03:00,
2013-07-03 03:05:00,59.4,56.8,29.88,NW,304,0.0,0.0,91,0.00,,,0.00,VWS V14.01,2013-07-03 10:05:00,
2013-07-03 03:06:00,59.4,56.5,29.88,NW,304,0.0,0.0,90,0.00,,,0.00,VWS V14.01,2013-07-03 10:06:00,
2013-07-03 03:11:00,59.4,56.5,29.88,NW,304,0.0,0.0,90,0.00,,,0.00,VWS V14.01,2013-07-03 10:11:00,
2013-07-03 03:17:00,59.4,56.5,29.88,NW,304,0.0,0.0,90,0.00,,,0.00,VWS V14.01,2013-07-03 10:17:00,
2013-07-03 03:22:00,59.3,56.4,29.88,NW,304,0.0,0.0,90,0.00,,,0.00,VWS V14.01,2013-07-03 10:22:00,
2013-07-03 03:27:00,59.2,56.2,29.88,NW,304,0.0,0.0,90,0.00,,,0.00,VWS V14.01,2013-07-03 10:27:00,
2013-07-03 03:32:00,59.1,56.4,29.87,NW,304,0.0,0.0,91,0.00,,,0.00,VWS V14.01,2013-07-03 10:32:00,
2013-07-03 03:37:00,59.0,56.0,29.87,NW,304,0.0,0.0,90,0.00,,,0.00,VWS V14.01,2013-07-03 10:37:00,
2013-07-03 03:43:00,58.9,56.3,29.87,NW,304,0.0,0.0,91,0.00,,,0.00,VWS V14.01,2013-07-03 10:43:00,
2013-07-03 03:48:00,59.1,56.4,29.87,NW,304,0.0,1.9,91,0.00,,,0.00,VWS V14.01,2013-07-03 10:48:00,
2013-07-03 03:53:00,59.2,56.5,29.87,NW,304,0.0,1.9,91,0.00,,,0.00,VWS V14.01,2013-07-03 10:53:00,
2013-07-03 03:55:00,59.2,56.6,29.87,NW,304,0.0,1.9,91,0.00,,,0.00,VWS V14.01,2013-07-03 10:55:00,
2013-07-03 04:00:00,59.4,56.8,29.87,WNW,297,0.0,0.0,91,0.00,,,0.00,VWS V14.01,2013-07-03 11:00:00,
2013-07-03 04:05:00,59.5,56.9,29.87,West,263,0.0,1.9,91,0.00,,,0.00,VWS V14.01,2013-07-03 11:05:00,
2013-07-03 04:08:00,59.6,56.7,29.87,West,263,0.0,1.9,90,0.00,,,0.00,VWS V14.01,2013-07-03 11:08:00,
2013-07-03 04:09:00,59.6,56.7,29.87,West,264,0.0,1.9,90,0.00,,,0.00,VWS V14.01,2013-07-03 11:09:00,
2013-07-03 04:14:00,59.6,56.7,29.87,West,264,0.0,1.9,90,0.00,,,0.00,VWS V14.01,2013-07-03 11:14:00,
2013-07-03 04:19:00,59.6,56.7,29.87,West,264,0.0,1.9,90,0.00,,,0.00,VWS V14.01,2013-07-03 11:19:00,
2013-07-03 04:24:00,59.5,56.6,29.87,West,264,0.0,1.9,90,0.00,,,0.00,VWS V14.01,2013-07-03 11:24:00,
2013-07-03 04:25:00,59.5,56.6,29.87,West,264,0.0,1.9,90,0.00,,,0.00,VWS V14.01,2013-07-03 11:25:00,
2013-07-03 04:26:00,59.5,56.6,29.87,West,264,0.0,1.9,90,0.00,,,0.00,VWS V14.01,2013-07-03 11:26:00,
2013-07-03 04:31:00,59.4,56.5,29.87,West,264,0.0,0.0,90,0.00,,,0.00,VWS V14.01,2013-07-03 11:31:00,
2013-07-03 04:36:00,59.3,56.4,29.87,West,264,0.0,1.9,90,0.00,,,0.00,VWS V14.01,2013-07-03 11:36:00,
2013-07-03 04:41:00,59.3,56.7,29.87,West,264,0.0,1.9,91,0.00,,,0.00,VWS V14.01,2013-07-03 11:41:00,
2013-07-03 04:46:00,59.3,56.7,29.87,West,264,0.0,1.9,91,0.00,,,0.00,VWS V14.01,2013-07-03 11:46:00,
2013-07-03 04:51:00,59.2,56.6,29.87,West,264,0.0,1.9,91,0.00,,,0.00,VWS V14.01,2013-07-03 11:51:00,
2013-07-03 04:58:00,59.2,56.5,29.87,West,264,0.0,1.9,91,0.00,,,0.00,VWS V14.01,2013-07-03 11:58:00,
2013-07-03 05:02:00,59.2,56.5,29.87,West,264,0.0,0.0,91,0.00,,,0.00,VWS V14.01,2013-07-03 12:02:00,
2013-07-03 05:04:00,59.1,56.4,29.87,West,264,0.0,0.0,91,0.00,,,0.00,VWS V14.01,2013-07-03 12:04:00,
2013-07-03 05:09:00,58.9,56.3,29.87,West,264,0.0,0.0,91,0.00,,,0.00,VWS V14.01,2013-07-03 12:09:00,
2013-07-03 05:14:00,58.9,56.3,29.87,West,264,0.0,1.9,91,0.00,,,0.00,VWS V14.01,2013-07-03 12:14:00,
2013-07-03 05:18:00,58.8,56.2,29.87,West,264,0.0,0.0,91,0.00,,,0.00,VWS V14.01,2013-07-03 12:18:00,
2013-07-03 05:23:00,58.7,56.1,29.87,West,264,0.0,0.0,91,0.00,,,0.00,VWS V14.01,2013-07-03 12:23:00,
2013-07-03 05:24:00,58.7,56.1,29.87,West,264,0.0,0.0,91,0.00,,,0.00,VWS V14.01,2013-07-03 12:24:00,
2013-07-03 05:29:00,58.7,56.4,29.87,West,264,0.0,0.0,92,0.00,,,0.00,VWS V14.01,2013-07-03 12:29:00,
2013-07-03 05:34:00,58.7,56.4,29.87,West,264,0.0,0.0,92,0.00,,,0.00,VWS V14.01,2013-07-03 12:34:00,
2013-07-03 05:39:00,58.7,56.4,29.87,West,263,0.0,1.9,92,0.00,,,0.00,VWS V14.01,2013-07-03 12:39:00,
2013-07-03 05:44:00,58.8,56.5,29.87,West,263,0.0,0.0,92,0.00,,,0.00,VWS V14.01,2013-07-03 12:44:00,
2013-07-03 05:51:00,58.8,56.5,29.87,West,263,0.0,0.0,92,0.00,,,0.00,VWS V14.01,2013-07-03 12:51:00,
2013-07-03 05:53:00,58.8,56.5,29.87,West,263,0.0,0.0,92,0.00,,,0.00,VWS V14.01,2013-07-03 12:53:00,
2013-07-03 06:00:00,58.8,56.5,29.87,West,263,0.0,0.0,92,0.00,,,0.00,VWS V14.01,2013-07-03 13:00:00,
2013-07-03 06:06:00,58.9,56.6,29.88,West,263,0.0,0.0,92,0.00,,,0.00,VWS V14.01,2013-07-03 13:06:00,
2013-07-03 06:12:00,58.9,56.6,29.87,West,263,1.9,1.9,92,0.00,,,0.00,VWS V14.01,2013-07-03 13:12:00,
2013-07-03 06:17:00,59.2,56.8,29.88,West,263,0.0,0.0,92,0.00,,,0.00,VWS V14.01,2013-07-03 13:17:00,
2013-07-03 06:22:00,59.4,57.1,29.88,WSW,241,0.0,1.9,92,0.00,,,0.00,VWS V14.01,2013-07-03 13:22:00,
2013-07-03 06:27:00,59.7,57.1,29.88,WSW,241,0.0,1.9,91,0.00,,,0.00,VWS V14.01,2013-07-03 13:27:00,
2013-07-03 06:28:00,59.8,57.2,29.88,WSW,242,0.0,1.9,91,0.00,,,0.00,VWS V14.01,2013-07-03 13:28:00,
2013-07-03 06:29:00,59.9,57.2,29.88,WSW,242,0.0,0.0,91,0.00,,,0.00,VWS V14.01,2013-07-03 13:29:00,
2013-07-03 06:35:00,60.2,57.3,29.88,WSW,241,0.0,1.9,90,0.00,,,0.00,VWS V14.01,2013-07-03 13:35:00,
2013-07-03 06:39:00,60.6,57.7,29.88,WSW,242,0.0,1.9,90,0.00,,,0.00,VWS V14.01,2013-07-03 13:39:00,
2013-07-03 06:44:00,61.0,57.8,29.88,SSW,205,0.0,1.9,89,0.00,,,0.00,VWS V14.01,2013-07-03 13:44:00,
2013-07-03 06:49:00,61.2,57.6,29.88,SSW,205,0.0,0.0,88,0.00,,,0.00,VWS V14.01,2013-07-03 13:49:00,
2013-07-03 06:55:00,61.4,57.5,29.88,SSW,205,0.0,0.0,87,0.00,,,0.00,VWS V14.01,2013-07-03 13:55:00,
2013-07-03 07:00:00,61.4,57.5,29.88,SSW,205,0.0,0.0,87,0.00,,,0.00,VWS V14.01,2013-07-03 14:00:00,
2013-07-03 07:05:00,61.6,57.7,29.88,SSW,206,0.0,0.0,87,0.00,,CLR,0.00,VWS V14.01,2013-07-03 14:05:00,
2013-07-03 07:08:00,61.7,57.8,29.88,SSW,205,0.0,0.0,87,0.00,,CLR,0.00,VWS V14.01,2013-07-03 14:08:00,
2013-07-03 07:11:00,61.7,57.8,29.88,SSW,205,0.0,0.0,87,0.00,,CLR,0.00,VWS V14.01,2013-07-03 14:11:00,
2013-07-03 07:16:00,61.8,57.9,29.88,SSW,205,0.0,0.0,87,0.00,,CLR,0.00,VWS V14.01,2013-07-03 14:16:00,
2013-07-03 07:18:00,61.8,57.6,29.88,SSW,205,0.0,0.0,86,0.00,,CLR,0.00,VWS V14.01,2013-07-03 14:18:00,
2013-07-03 07:23:00,61.9,57.7,29.87,SW,216,0.0,1.9,86,0.00,,CLR,0.00,VWS V14.01,2013-07-03 14:23:00,
2013-07-03 07:28:00,62.0,57.8,29.87,WSW,243,0.0,1.9,86,0.00,,CLR,0.00,VWS V14.01,2013-07-03 14:28:00,
2013-07-03 07:33:00,62.1,57.9,29.88,WNW,284,0.0,1.9,86,0.00,,CLR,0.00,VWS V14.01,2013-07-03 14:33:00,
2013-07-03 07:38:00,62.4,57.8,29.88,WNW,283,0.0,1.9,85,0.00,,CLR,0.00,VWS V14.01,2013-07-03 14:38:00,
2013-07-03 07:43:00,62.7,58.1,29.88,WNW,283,0.0,1.9,85,0.00,,CLR,0.00,VWS V14.01,2013-07-03 14:43:00,
2013-07-03 07:49:00,63.4,58.1,29.88,West,278,0.0,3.8,83,0.00,,CLR,0.00,VWS V14.01,2013-07-03 14:49:00,
2013-07-03 07:54:00,64.0,58.8,29.88,West,276,0.0,3.8,83,0.00,,CLR,0.00,VWS V14.01,2013-07-03 14:54:00,
2013-07-03 07:55:00,64.2,58.9,29.88,West,276,0.0,3.8,83,0.00,,CLR,0.00,VWS V14.01,2013-07-03 14:55:00,
2013-07-03 08:02:00,65.5,58.9,29.88,West,276,0.0,0.0,79,0.00,,CLR,0.00,VWS V14.01,2013-07-03 15:02:00,
2013-07-03 08:05:00,66.3,59.6,29.88,West,276,0.0,0.0,79,0.00,,CLR,0.00,VWS V14.01,2013-07-03 15:05:00,
2013-07-03 08:09:00,67.2,59.7,29.88,West,276,0.0,1.9,77,0.00,,CLR,0.00,VWS V14.01,2013-07-03 15:09:00,
2013-07-03 08:14:00,68.0,59.8,29.88,North,6,0.0,3.8,75,0.00,,CLR,0.00,VWS V14.01,2013-07-03 15:14:00,
2013-07-03 08:15:00,68.2,59.6,29.88,North,5,0.0,0.0,74,0.00,,CLR,0.00,VWS V14.01,2013-07-03 15:15:00,
2013-07-03 08:21:00,68.2,59.2,29.88,West,274,0.0,3.8,73,0.00,,CLR,0.00,VWS V14.01,2013-07-03 15:21:00,
2013-07-03 08:27:00,69.1,60.1,29.88,West,274,0.0,3.8,73,0.00,,CLR,0.00,VWS V14.01,2013-07-03 15:27:00,
2013-07-03 08:29:00,69.5,60.1,29.88,West,272,0.0,3.8,72,0.00,,CLR,0.00,VWS V14.01,2013-07-03 15:29:00,
2013-07-03 08:34:00,70.5,59.8,29.88,ENE,57,0.0,1.9,69,0.00,,CLR,0.00,VWS V14.01,2013-07-03 15:34:00,
2013-07-03 08:41:00,71.1,59.6,29.88,East,81,1.9,5.7,67,0.00,,CLR,0.00,VWS V14.01,2013-07-03 15:41:00,
2013-07-03 08:46:00,71.5,60.0,29.88,North,5,1.9,1.9,67,0.00,,CLR,0.00,VWS V14.01,2013-07-03 15:46:00,
2013-07-03 08:52:00,72.3,60.3,29.88,NE,51,0.0,1.9,66,0.00,,CLR,0.00,VWS V14.01,2013-07-03 15:52:00,
2013-07-03 08:56:00,72.6,61.4,29.88,South,181,0.0,3.8,68,0.00,,CLR,0.00,VWS V14.01,2013-07-03 15:56:00,
2013-07-03 08:57:00,72.7,61.1,29.88,East,98,3.8,3.8,67,0.00,,CLR,0.00,VWS V14.01,2013-07-03 15:57:00,
2013-07-03 09:02:00,73.6,61.1,29.88,SSW,212,0.0,1.9,65,0.00,,CLR,0.00,VWS V14.01,2013-07-03 16:02:00,
2013-07-03 09:07:00,74.7,61.3,29.87,SSW,210,0.0,1.9,63,0.00,,CLR,0.00,VWS V14.01,2013-07-03 16:07:00,
2013-07-03 09:12:00,75.1,60.7,29.87,ENE,78,1.9,3.8,61,0.00,,CLR,0.00,VWS V14.01,2013-07-03 16:12:00,
2013-07-03 09:17:00,75.6,60.8,29.87,SW,215,0.0,1.9,60,0.00,,CLR,0.00,VWS V14.01,2013-07-03 16:17:00,
2013-07-03 09:23:00,76.2,61.7,29.87,SSW,195,0.0,3.8,61,0.00,,CLR,0.00,VWS V14.01,2013-07-03 16:23:00,
2013-07-03 09:28:00,76.2,60.8,29.87,WNW,295,0.0,3.8,59,0.00,,CLR,0.00,VWS V14.01,2013-07-03 16:28:00,
2013-07-03 09:33:00,75.9,59.6,29.87,West,278,0.0,3.8,57,0.00,,CLR,0.00,VWS V14.01,2013-07-03 16:33:00,
2013-07-03 09:38:00,75.7,59.9,29.87,WNW,283,1.9,3.8,58,0.00,,CLR,0.00,VWS V14.01,2013-07-03 16:38:00,
2013-07-03 09:43:00,75.3,59.6,29.87,North,5,1.9,3.8,58,0.00,,CLR,0.00,VWS V14.01,2013-07-03 16:43:00,
2013-07-03 09:48:00,75.7,60.4,29.86,WNW,295,0.0,3.8,59,0.00,,CLR,0.00,VWS V14.01,2013-07-03 16:48:00,
2013-07-03 09:53:00,76.2,60.3,29.86,NNE,32,1.9,5.7,58,0.00,,CLR,0.00,VWS V14.01,2013-07-03 16:53:00,
2013-07-03 09:59:00,76.8,59.9,29.86,NNE,16,0.0,5.7,56,0.00,,CLR,0.00,VWS V14.01,2013-07-03 16:59:00,
2013-07-03 10:04:00,77.2,60.8,29.86,West,269,0.0,1.9,57,0.00,,SCT250,0.00,VWS V14.01,2013-07-03 17:04:00,
2013-07-03 10:09:00,77.2,60.3,29.86,West,280,0.0,3.8,56,0.00,,SCT250,0.00,VWS V14.01,2013-07-03 17:09:00,
2013-07-03 10:14:00,76.5,59.7,29.86,WNW,290,1.9,1.9,56,0.00,,SCT250,0.00,VWS V14.01,2013-07-03 17:14:00,
2013-07-03 10:20:00,76.2,59.8,29.86,WNW,285,0.0,3.8,57,0.00,,SCT250,0.00,VWS V14.01,2013-07-03 17:20:00,
2013-07-03 10:25:00,76.5,60.2,29.86,WNW,297,0.0,3.8,57,0.00,,SCT250,0.00,VWS V14.01,2013-07-03 17:25:00,
2013-07-03 10:30:00,76.8,59.9,29.86,West,271,3.8,3.8,56,0.00,,SCT250,0.00,VWS V14.01,2013-07-03 17:30:00,
2013-07-03 10:35:00,77.0,59.6,29.85,WNW,283,0.0,5.7,55,0.00,,SCT250,0.00,VWS V14.01,2013-07-03 17:35:00,
2013-07-03 10:42:00,78.1,60.6,29.85,NW,309,0.0,5.7,55,0.00,,SCT250,0.00,VWS V14.01,2013-07-03 17:42:00,
2013-07-03 10:50:00,79.2,60.6,29.85,SW,232,0.0,1.9,53,0.00,,SCT250,0.00,VWS V14.01,2013-07-03 17:50:00,
2013-07-03 10:55:00,79.1,60.5,29.85,West,269,3.8,7.6,53,0.00,,SCT250,0.00,VWS V14.01,2013-07-03 17:55:00,
2013-07-03 11:00:00,78.9,60.8,29.85,NNW,338,0.0,1.9,54,0.00,,SCT250,0.00,VWS V14.01,2013-07-03 18:00:00,
2013-07-03 11:05:00,78.8,60.7,29.84,NNW,334,0.0,3.8,54,0.00,,CLR,0.00,VWS V14.01,2013-07-03 18:05:00,
2013-07-03 11:10:00,79.5,61.9,29.84,SW,232,1.9,5.7,55,0.00,,CLR,0.00,VWS V14.01,2013-07-03 18:10:00,
2013-07-03 11:15:00,80.2,61.0,29.84,WSW,256,1.9,1.9,52,0.00,,CLR,0.00,VWS V14.01,2013-07-03 18:15:00,
2013-07-03 11:20:00,80.9,62.2,29.84,SSW,207,0.0,1.9,53,0.00,,CLR,0.00,VWS V14.01,2013-07-03 18:20:00,
2013-07-03 11:26:00,81.3,60.9,29.84,WSW,239,1.9,3.8,50,0.00,,CLR,0.00,VWS V14.01,2013-07-03 18:26:00,
2013-07-03 11:31:00,81.4,61.0,29.84,WNW,297,0.0,3.8,50,0.00,,CLR,0.00,VWS V14.01,2013-07-03 18:31:00,
2013-07-03 11:37:00,81.6,61.1,29.84,SW,228,0.0,3.8,50,0.00,,CLR,0.00,VWS V14.01,2013-07-03 18:37:00,
2013-07-03 11:42:00,81.9,62.0,29.84,West,259,0.0,3.8,51,0.00,,CLR,0.00,VWS V14.01,2013-07-03 18:42:00,
2013-07-03 11:48:00,82.1,61.6,29.84,SSW,204,0.0,1.9,50,0.00,,CLR,0.00,VWS V14.01,2013-07-03 18:48:00,
2013-07-03 11:54:00,82.3,60.7,29.83,West,274,0.0,1.9,48,0.00,,CLR,0.00,VWS V14.01,2013-07-03 18:54:00,
2013-07-03 11:59:00,82.6,61.6,29.83,West,264,0.0,1.9,49,0.00,,CLR,0.00,VWS V14.01,2013-07-03 18:59:00,
2013-07-03 12:04:00,83.2,62.6,29.83,SSW,204,0.0,5.7,50,0.00,,SCT180,0.00,VWS V14.01,2013-07-03 19:04:00,
2013-07-03 12:10:00,84.1,61.7,29.83,West,278,1.9,5.7,47,0.00,,SCT180,0.00,VWS V14.01,2013-07-03 19:10:00,
2013-07-03 12:15:00,84.0,61.0,29.83,NW,323,1.9,3.8,46,0.00,,SCT180,0.00,VWS V14.01,2013-07-03 19:15:00,
2013-07-03 12:20:00,84.2,62.4,29.83,West,276,1.9,3.8,48,0.00,,SCT180,0.00,VWS V14.01,2013-07-03 19:20:00,
2013-07-03 12:25:00,84.9,62.4,29.83,SSW,212,1.9,3.8,47,0.00,,SCT180,0.00,VWS V14.01,2013-07-03 19:25:00,
2013-07-03 12:30:00,85.9,62.1,29.83,WNW,284,1.9,1.9,45,0.00,,SCT180,0.00,VWS V14.01,2013-07-03 19:30:00,
2013-07-03 12:36:00,86.4,63.2,29.82,SSW,211,0.0,7.6,46,0.00,,SCT180,0.00,VWS V14.01,2013-07-03 19:36:00,
2013-07-03 12:41:00,87.2,62.7,29.82,SSW,208,3.8,7.6,44,0.00,,SCT180,0.00,VWS V14.01,2013-07-03 19:41:00,
2013-07-03 12:46:00,87.5,64.2,29.82,SW,229,0.0,1.9,46,0.00,,SCT180,0.00,VWS V14.01,2013-07-03 19:46:00,
2013-07-03 12:51:00,87.5,61.6,29.82,WSW,253,1.9,9.5,42,0.00,,SCT180,0.00,VWS V14.01,2013-07-03 19:51:00,
2013-07-03 12:56:00,87.5,62.3,29.82,SW,214,1.9,9.5,43,0.00,,SCT180,0.00,VWS V14.01,2013-07-03 19:56:00,
2013-07-03 13:01:00,87.2,61.4,29.82,South,184,3.8,5.7,42,0.00,,SCT180,0.00,VWS V14.01,2013-07-03 20:01:00,
2013-07-03 13:07:00,87.1,61.3,29.82,SSE,165,1.9,7.6,42,0.00,,SCT180,0.00,VWS V14.01,2013-07-03 20:07:00,
2013-07-03 13:12:00,87.2,62.0,29.82,West,268,0.0,7.6,43,0.00,,SCT180,0.00,VWS V14.01,2013-07-03 20:12:00,
2013-07-03 13:17:00,87.5,62.3,29.82,SW,222,0.0,5.7,43,0.00,,SCT180,0.00,VWS V14.01,2013-07-03 20:17:00,
2013-07-03 13:22:00,87.7,62.4,29.82,SSW,211,0.0,7.6,43,0.00,,SCT180,0.00,VWS V14.01,2013-07-03 20:22:00,
2013-07-03 13:27:00,87.8,61.2,29.82,SSW,203,0.0,7.6,41,0.00,,SCT180,0.00,VWS V14.01,2013-07-03 20:27:00,
2013-07-03 13:34:00,87.3,60.1,29.82,South,190,1.9,11.4,40,0.00,,SCT180,0.00,VWS V14.01,2013-07-03 20:34:00,
2013-07-03 13:39:00,87.5,60.9,29.82,SSW,201,3.8,11.4,41,0.00,,SCT180,0.00,VWS V14.01,2013-07-03 20:39:00,
2013-07-03 13:44:00,87.6,60.3,29.82,SSW,194,5.7,11.4,40,0.00,,SCT180,0.00,VWS V14.01,2013-07-03 20:44:00,
2013-07-03 13:49:00,87.6,63.0,29.82,WSW,257,0.0,5.7,44,0.00,,SCT180,0.00,VWS V14.01,2013-07-03 20:49:00,
2013-07-03 13:54:00,88.2,62.2,29.82,WSW,249,0.0,9.5,42,0.00,,SCT180,0.00,VWS V14.01,2013-07-03 20:54:00,
2013-07-03 13:59:00,89.0,61.6,29.81,SE,124,1.9,9.5,40,0.00,,SCT180,0.00,VWS V14.01,2013-07-03 20:59:00,
2013-07-03 14:05:00,89.2,62.5,29.81,WSW,252,0.0,9.5,41,0.00,,SCT180,0.00,VWS V14.01,2013-07-03 21:05:00,
2013-07-03 14:11:00,89.4,60.5,29.81,West,259,3.8,9.5,38,0.00,,SCT180,0.00,VWS V14.01,2013-07-03 21:11:00,
2013-07-03 14:16:00,88.9,60.8,29.81,West,261,1.9,3.8,39,0.00,,SCT180,0.00,VWS V14.01,2013-07-03 21:16:00,
2013-07-03 14:22:00,87.6,60.3,29.81,SSW,203,1.9,11.4,40,0.00,,SCT180,0.00,VWS V14.01,2013-07-03 21:22:00,
2013-07-03 14:27:00,87.1,60.6,29.81,SW,236,1.9,11.4,41,0.00,,SCT180,0.00,VWS V14.01,2013-07-03 21:27:00,
2013-07-03 14:33:00,86.5,60.7,29.81,WSW,245,1.9,13.3,42,0.00,,SCT180,0.00,VWS V14.01,2013-07-03 21:33:00,
2013-07-03 14:38:00,86.6,59.4,29.81,SSE,163,1.9,15.2,40,0.00,,SCT180,0.00,VWS V14.01,2013-07-03 21:38:00,
2013-07-03 14:43:00,86.0,59.6,29.81,WSW,250,1.9,15.2,41,0.00,,SCT180,0.00,VWS V14.01,2013-07-03 21:43:00,
2013-07-03 14:48:00,86.2,59.7,29.81,SW,215,1.9,7.6,41,0.00,,SCT180,0.00,VWS V14.01,2013-07-03 21:48:00,
2013-07-03 14:54:00,86.0,59.6,29.81,SSW,201,3.8,13.3,41,0.00,,SCT180,0.00,VWS V14.01,2013-07-03 21:54:00,
2013-07-03 14:59:00,85.2,58.2,29.81,SSW,193,7.6,13.3,40,0.00,,SCT180,0.00,VWS V14.01,2013-07-03 21:59:00,
2013-07-03 15:04:00,83.9,58.4,29.82,SW,228,1.9,17.1,42,0.00,,SCT180,0.00,VWS V14.01,2013-07-03 22:04:00,
2013-07-03 15:09:00,83.9,59.7,29.81,SSW,204,3.8,17.1,44,0.00,,SCT180,0.00,VWS V14.01,2013-07-03 22:09:00,
2013-07-03 15:14:00,83.8,59.0,29.81,SSW,207,0.0,17.1,43,0.00,,SCT180,0.00,VWS V14.01,2013-07-03 22:14:00,
2013-07-03 15:19:00,83.9,59.0,29.81,SSE,166,3.8,7.6,43,0.00,,SCT180,0.00,VWS V14.01,2013-07-03 22:19:00,
2013-07-03 15:26:00,83.7,58.9,29.80,SE,136,0.0,7.6,43,0.00,,SCT180,0.00,VWS V14.01,2013-07-03 22:26:00,
2013-07-03 15:31:00,83.8,59.0,29.80,SW,214,1.9,5.7,43,0.00,,SCT180,0.00,VWS V14.01,2013-07-03 22:31:00,
2013-07-03 15:37:00,83.7,58.9,29.80,SW,225,3.8,7.6,43,0.00,,SCT180,0.00,VWS V14.01,2013-07-03 22:37:00,
2013-07-03 15:42:00,83.6,59.4,29.80,SW,235,0.0,11.4,44,0.00,,SCT180,0.00,VWS V14.01,2013-07-03 22:42:00,
2013-07-03 15:47:00,83.9,59.0,29.79,WSW,245,5.7,5.7,43,0.00,,SCT180,0.00,VWS V14.01,2013-07-03 22:47:00,
2013-07-03 15:52:00,83.7,58.9,29.79,SSW,204,3.8,7.6,43,0.00,,SCT180,0.00,VWS V14.01,2013-07-03 22:52:00,
2013-07-03 15:57:00,83.1,58.3,29.79,WSW,244,1.9,9.5,43,0.00,,SCT180,0.00,VWS V14.01,2013-07-03 22:57:00,
2013-07-03 16:03:00,83.4,59.9,29.79,South,191,1.9,5.7,45,0.00,,CLR,0.00,VWS V14.01,2013-07-03 23:03:00,
2013-07-03 16:08:00,83.8,57.6,29.78,SSW,210,3.8,7.6,41,0.00,,CLR,0.00,VWS V14.01,2013-07-03 23:08:00,
2013-07-03 16:13:00,83.8,58.3,29.78,SSW,212,1.9,7.6,42,0.00,,CLR,0.00,VWS V14.01,2013-07-03 23:13:00,
2013-07-03 16:18:00,84.2,58.0,29.78,SSW,208,3.8,5.7,41,0.00,,CLR,0.00,VWS V14.01,2013-07-03 23:18:00,
2013-07-03 16:23:00,84.2,58.6,29.77,WNW,288,1.9,7.6,42,0.00,,CLR,0.00,VWS V14.01,2013-07-03 23:23:00,
2013-07-03 16:29:00,84.3,58.8,29.77,East,91,3.8,7.6,42,0.00,,CLR,0.00,VWS V14.01,2013-07-03 23:29:00,
2013-07-03 16:34:00,84.7,60.4,29.77,ESE,109,1.9,3.8,44,0.00,,CLR,0.00,VWS V14.01,2013-07-03 23:34:00,
2013-07-03 16:39:00,84.9,58.6,29.77,SE,127,3.8,11.4,41,0.00,,CLR,0.00,VWS V14.01,2013-07-03 23:39:00,
2013-07-03 16:45:00,84.3,58.8,29.76,WSW,256,0.0,3.8,42,0.00,,CLR,0.00,VWS V14.01,2013-07-03 23:45:00,
2013-07-03 16:50:00,84.4,58.9,29.76,ENE,77,0.0,5.7,42,0.00,,CLR,0.00,VWS V14.01,2013-07-03 23:50:00,
2013-07-03 16:55:00,84.8,58.5,29.76,SE,131,1.9,7.6,41,0.00,,CLR,0.00,VWS V14.01,2013-07-03 23:55:00,
2013-07-03 17:00:00,84.6,59.0,29.76,ENE,65,1.9,7.6,42,0.00,,CLR,0.00,VWS V14.01,2013-07-04 00:00:00,
2013-07-03 17:05:00,84.9,59.3,29.76,SE,140,1.9,11.4,42,0.00,,SCT250,0.00,VWS V14.01,2013-07-04 00:05:00,
2013-07-03 17:10:00,84.3,58.7,29.76,East,84,3.8,15.2,42,0.00,,SCT250,0.00,VWS V14.01,2013-07-04 00:10:00,
2013-07-03 17:15:00,83.6,59.4,29.75,ESE,111,3.8,5.7,44,0.00,,SCT250,0.00,VWS V14.01,2013-07-04 00:15:00,
2013-07-03 17:20:00,83.7,59.5,29.75,SSW,193,1.9,11.4,44,0.00,,SCT250,0.00,VWS V14.01,2013-07-04 00:20:00,
2013-07-03 17:27:00,84.4,60.2,29.75,SSW,197,1.9,13.3,44,0.00,,SCT250,0.00,VWS V14.01,2013-07-04 00:27:00,
2013-07-03 17:32:00,84.5,60.9,29.75,NNW,338,1.9,5.7,45,0.00,,SCT250,0.00,VWS V14.01,2013-07-04 00:32:00,
2013-07-03 17:37:00,84.5,59.6,29.75,SW,229,3.8,5.7,43,0.00,,SCT250,0.00,VWS V14.01,2013-07-04 00:37:00,
2013-07-03 17:43:00,84.6,60.3,29.75,South,187,0.0,7.6,44,0.00,,SCT250,0.00,VWS V14.01,2013-07-04 00:43:00,
2013-07-03 17:49:00,84.9,59.9,29.75,South,186,1.9,7.6,43,0.00,,SCT250,0.00,VWS V14.01,2013-07-04 00:49:00,
2013-07-03 17:54:00,84.9,59.9,29.75,SW,224,5.7,7.6,43,0.00,,SCT250,0.00,VWS V14.01,2013-07-04 00:54:00,
2013-07-03 17:59:00,83.8,59.6,29.75,SW,229,1.9,7.6,44,0.00,,SCT250,0.00,VWS V14.01,2013-07-04 00:59:00,
2013-07-03 18:05:00,82.6,59.8,29.75,WNW,293,1.9,11.4,46,0.00,,SCT250,0.00,VWS V14.01,2013-07-04 01:05:00,
2013-07-03 18:11:00,81.7,58.9,29.75,SW,228,1.9,11.4,46,0.00,,SCT250,0.00,VWS V14.01,2013-07-04 01:11:00,
2013-07-03 18:16:00,81.1,59.0,29.75,WSW,243,1.9,5.7,47,0.00,,SCT250,0.00,VWS V14.01,2013-07-04 01:16:00,
2013-07-03 18:21:00,80.6,59.1,29.75,NNE,23,1.9,9.5,48,0.00,,SCT250,0.00,VWS V14.01,2013-07-04 01:21:00,
2013-07-03 18:26:00,80.5,59.0,29.75,WSW,246,1.9,9.5,48,0.00,,SCT250,0.00,VWS V14.01,2013-07-04 01:26:00,
2013-07-03 18:31:00,79.9,58.5,29.75,SW,215,1.9,7.6,48,0.00,,SCT250,0.00,VWS V14.01,2013-07-04 01:31:00,
2013-07-03 18:39:00,79.6,58.8,29.75,SW,236,0.0,7.6,49,0.00,,SCT250,0.00,VWS V14.01,2013-07-04 01:39:00,
2013-07-03 18:44:00,79.3,57.9,29.75,SSW,212,1.9,7.6,48,0.00,,SCT250,0.00,VWS V14.01,2013-07-04 01:44:00,
2013-07-03 18:49:00,78.6,57.8,29.75,West,259,0.0,5.7,49,0.00,,SCT250,0.00,VWS V14.01,2013-07-04 01:49:00,
2013-07-03 18:57:00,78.3,57.6,29.76,West,281,3.8,5.7,49,0.00,,SCT250,0.00,VWS V14.01,2013-07-04 01:57:00,
2013-07-03 19:02:00,77.9,57.8,29.76,WNW,298,3.8,7.6,50,0.00,,SCT180,0.00,VWS V14.01,2013-07-04 02:02:00,
2013-07-03 19:07:00,77.4,57.9,29.76,SW,215,1.9,7.6,51,0.00,,SCT180,0.00,VWS V14.01,2013-07-04 02:07:00,
2013-07-03 19:12:00,76.7,57.8,29.76,SW,217,1.9,15.2,52,0.00,,SCT180,0.00,VWS V14.01,2013-07-04 02:12:00,
2013-07-03 19:17:00,76.2,57.3,29.76,South,191,5.7,5.7,52,0.00,,SCT180,0.00,VWS V14.01,2013-07-04 02:17:00,
2013-07-03 19:22:00,75.1,56.8,29.76,SSW,203,1.9,9.5,53,0.00,,SCT180,0.00,VWS V14.01,2013-07-04 02:22:00,
2013-07-03 19:28:00,74.3,57.6,29.76,West,260,0.0,9.5,56,0.00,,SCT180,0.00,VWS V14.01,2013-07-04 02:28:00,
2013-07-03 19:33:00,73.6,56.9,29.76,SW,218,0.0,3.8,56,0.00,,SCT180,0.00,VWS V14.01,2013-07-04 02:33:00,
2013-07-03 19:38:00,72.8,57.2,29.77,SSW,199,1.9,5.7,58,0.00,,SCT180,0.00,VWS V14.01,2013-07-04 02:38:00,
2013-07-03 19:44:00,71.9,56.8,29.77,WNW,287,3.8,5.7,59,0.00,,SCT180,0.00,VWS V14.01,2013-07-04 02:44:00,
2013-07-03 19:49:00,71.4,57.3,29.77,West,269,0.0,3.8,61,0.00,,SCT180,0.00,VWS V14.01,2013-07-04 02:49:00,
2013-07-03 19:55:00,71.0,56.9,29.77,SSW,197,0.0,3.8,61,0.00,,SCT180,0.00,VWS V14.01,2013-07-04 02:55:00,
2013-07-03 20:00:00,70.7,57.0,29.77,SW,235,0.0,1.9,62,0.00,,SCT180,0.00,VWS V14.01,2013-07-04 03:00:00,
2013-07-03 20:06:00,70.3,56.7,29.76,SSW,205,1.9,5.7,62,0.00,,SCT180,0.00,VWS V14.01,2013-07-04 03:06:00,
2013-07-03 20:11:00,70.0,57.3,29.76,SSW,210,0.0,5.7,64,0.00,,SCT180,0.00,VWS V14.01,2013-07-04 03:11:00,
2013-07-03 20:16:00,69.9,57.1,29.76,WNW,301,0.0,1.9,64,0.00,,SCT180,0.00,VWS V14.01,2013-07-04 03:16:00,
2013-07-03 20:21:00,69.6,57.3,29.76,WNW,292,0.0,1.9,65,0.00,,SCT180,0.00,VWS V14.01,2013-07-04 03:21:00,
2013-07-03 20:27:00,69.3,57.1,29.76,SSW,194,0.0,1.9,65,0.00,,SCT180,0.00,VWS V14.01,2013-07-04 03:27:00,
2013-07-03 20:32:00,69.0,57.1,29.77,West,271,0.0,3.8,66,0.00,,SCT180,0.00,VWS V14.01,2013-07-04 03:32:00,
2013-07-03 20:37:00,68.4,57.0,29.76,SW,222,1.9,3.8,67,0.00,,SCT180,0.00,VWS V14.01,2013-07-04 03:37:00,
2013-07-03 20:42:00,68.2,57.2,29.76,SSW,208,0.0,3.8,68,0.00,,SCT180,0.00,VWS V14.01,2013-07-04 03:42:00,
2013-07-03 20:47:00,68.0,57.0,29.76,SSW,193,0.0,1.9,68,0.00,,SCT180,0.00,VWS V14.01,2013-07-04 03:47:00,
2013-07-03 20:52:00,67.8,56.9,29.77,West,274,1.9,3.8,68,0.00,,SCT180,0.00,VWS V14.01,2013-07-04 03:52:00,
2013-07-03 20:57:00,67.5,57.0,29.76,West,274,0.0,3.8,69,0.00,,SCT180,0.00,VWS V14.01,2013-07-04 03:57:00,
2013-07-03 21:01:00,67.4,57.3,29.76,SW,225,0.0,0.0,70,0.00,,CLR,0.00,VWS V14.01,2013-07-04 04:01:00,
2013-07-03 21:03:00,67.3,57.2,29.76,SW,226,1.9,1.9,70,0.00,,CLR,0.00,VWS V14.01,2013-07-04 04:03:00,
2013-07-03 21:04:00,67.3,56.8,29.76,SW,225,0.0,1.9,69,0.00,,CLR,0.00,VWS V14.01,2013-07-04 04:04:00,
2013-07-03 21:08:00,67.2,57.1,29.76,SW,224,0.0,1.9,70,0.00,,CLR,0.00,VWS V14.01,2013-07-04 04:08:00,
2013-07-03 21:13:00,67.1,57.0,29.76,SSW,195,0.0,1.9,70,0.00,,CLR,0.00,VWS V14.01,2013-07-04 04:13:00,
2013-07-03 21:18:00,67.0,56.9,29.76,WSW,246,0.0,1.9,70,0.00,,CLR,0.00,VWS V14.01,2013-07-04 04:18:00,
2013-07-03 21:21:00,66.9,56.8,29.76,WSW,246,0.0,1.9,70,0.00,,CLR,0.00,VWS V14.01,2013-07-04 04:21:00,
2013-07-03 21:26:00,66.7,57.0,29.76,WSW,245,1.9,1.9,71,0.00,,CLR,0.00,VWS V14.01,2013-07-04 04:26:00,
2013-07-03 21:31:00,66.6,56.9,29.76,SSW,211,0.0,1.9,71,0.00,,CLR,0.00,VWS V14.01,2013-07-04 04:31:00,
2013-07-03 21:36:00,66.4,57.2,29.76,SSW,211,0.0,1.9,72,0.00,,CLR,0.00,VWS V14.01,2013-07-04 04:36:00,
2013-07-03 21:41:00,66.3,57.0,29.77,SSW,211,0.0,1.9,72,0.00,,CLR,0.00,VWS V14.01,2013-07-04 04:41:00,
2013-07-03 21:46:00,66.3,57.0,29.77,West,264,0.0,0.0,72,0.00,,CLR,0.00,VWS V14.01,2013-07-04 04:46:00,
2013-07-03 21:51:00,66.2,56.9,29.77,West,264,0.0,0.0,72,0.00,,CLR,0.00,VWS V14.01,2013-07-04 04:51:00,
2013-07-03 21:56:00,66.1,57.2,29.77,West,267,0.0,1.9,73,0.00,,CLR,0.00,VWS V14.01,2013-07-04 04:56:00,
2013-07-03 22:01:00,66.0,57.1,29.78,West,267,0.0,0.0,73,0.00,,CLR,0.00,VWS V14.01,2013-07-04 05:01:00,
2013-07-03 22:06:00,65.9,57.0,29.78,West,266,0.0,0.0,73,0.00,,CLR,0.00,VWS V14.01,2013-07-04 05:06:00,
2013-07-03 22:11:00,65.8,56.9,29.78,West,266,0.0,0.0,73,0.00,,CLR,0.00,VWS V14.01,2013-07-04 05:11:00,
2013-07-03 22:16:00,65.8,56.9,29.78,West,267,0.0,0.0,73,0.00,,CLR,0.00,VWS V14.01,2013-07-04 05:16:00,
2013-07-03 22:21:00,65.8,57.3,29.78,West,266,0.0,1.9,74,0.00,,CLR,0.00,VWS V14.01,2013-07-04 05:21:00,
2013-07-03 22:26:00,65.8,57.3,29.78,West,267,0.0,1.9,74,0.00,,CLR,0.00,VWS V14.01,2013-07-04 05:26:00,
2013-07-03 22:31:00,65.8,57.3,29.78,West,267,0.0,0.0,74,0.00,,CLR,0.00,VWS V14.01,2013-07-04 05:31:00,
2013-07-03 22:36:00,65.8,57.3,29.78,WSW,248,0.0,1.9,74,0.00,,CLR,0.00,VWS V14.01,2013-07-04 05:36:00,
2013-07-03 22:41:00,65.8,57.3,29.78,WSW,249,0.0,1.9,74,0.00,,CLR,0.00,VWS V14.01,2013-07-04 05:41:00,
2013-07-03 22:46:00,65.9,57.4,29.78,WSW,246,0.0,1.9,74,0.00,,CLR,0.00,VWS V14.01,2013-07-04 05:46:00,
2013-07-03 22:51:00,65.7,56.8,29.78,WNW,293,0.0,3.8,73,0.00,,CLR,0.00,VWS V14.01,2013-07-04 05:51:00,
2013-07-03 22:56:00,65.5,57.0,29.78,SSW,203,1.9,3.8,74,0.00,,CLR,0.00,VWS V14.01,2013-07-04 05:56:00,
2013-07-03 23:01:00,65.4,57.3,29.78,SW,214,0.0,1.9,75,0.00,,CLR,0.00,VWS V14.01,2013-07-04 06:01:00,
2013-07-03 23:06:00,65.3,57.2,29.78,SW,218,0.0,3.8,75,0.00,,CLR,0.00,VWS V14.01,2013-07-04 06:06:00,
2013-07-03 23:11:00,65.0,56.9,29.78,WNW,288,0.0,3.8,75,0.00,,CLR,0.00,VWS V14.01,2013-07-04 06:11:00,
2013-07-03 23:16:00,64.7,56.6,29.78,NW,314,0.0,3.8,75,0.00,,CLR,0.00,VWS V14.01,2013-07-04 06:16:00,
2013-07-03 23:21:00,64.6,56.8,29.78,WNW,285,0.0,3.8,76,0.00,,CLR,0.00,VWS V14.01,2013-07-04 06:21:00,
2013-07-03 23:26:00,64.4,56.7,29.78,SW,233,1.9,3.8,76,0.00,,CLR,0.00,VWS V14.01,2013-07-04 06:26:00,
2013-07-03 23:31:00,64.3,56.9,29.78,WSW,245,0.0,1.9,77,0.00,,CLR,0.00,VWS V14.01,2013-07-04 06:31:00,
2013-07-03 23:36:00,64.2,56.8,29.78,WSW,248,0.0,1.9,77,0.00,,CLR,0.00,VWS V14.01,2013-07-04 06:36:00,
2013-07-03 23:41:00,64.1,56.8,29.79,WSW,250,0.0,1.9,77,0.00,,CLR,0.00,VWS V14.01,2013-07-04 06:41:00,
2013-07-03 23:47:00,64.0,56.7,29.79,NNW,342,0.0,3.8,77,0.00,,CLR,0.00,VWS V14.01,2013-07-04 06:47:00,
2013-07-03 23:52:00,63.9,56.6,29.79,West,274,0.0,3.8,77,0.00,,CLR,0.00,VWS V14.01,2013-07-04 06:52:00,
2013-07-03 23:57:00,63.9,56.6,29.79,West,276,0.0,3.8,77,0.00,,CLR,0.00,VWS V14.01,2013-07-04 06:57:00,